�������l�o���
Date,Time,MP-1(��Sv/h),MP-2(��Sv/h),MP-3(��Sv/h),MP-4(��Sv/h),MP-5(��Sv/h),MP-6(��Sv/h),MP-7(��Sv/h),MP-8(��Sv/h),����,����(m/s),���J
2018/12/09,00:00,0.768,1.155,0.813,1.466,1.048,0.446,0.795,0.753,�k�k��,9.9,�L
2018/12/09,00:10,0.770,1.156,0.814,1.464,1.051,0.446,0.796,0.753,�k,8.5,�L
2018/12/09,00:20,0.770,1.158,0.815,1.466,1.047,0.446,0.794,0.753,�k�k��,8.6,��
2018/12/09,00:30,0.769,1.155,0.813,1.464,1.051,0.446,0.794,0.753,�k�k��,8.7,��
2018/12/09,00:40,0.767,1.155,0.814,1.465,1.047,0.445,0.795,0.753,�k�k��,9.4,��
2018/12/09,00:50,0.770,1.156,0.814,1.466,1.048,0.446,0.796,0.753,�k�k��,9.7,��
2018/12/09,01:00,0.769,1.156,0.817,1.467,1.049,0.447,0.796,0.753,�k�k��,8.9,��
2018/12/09,01:10,0.771,1.155,0.817,1.464,1.052,0.448,0.796,0.754,�k�k��,9.6,��
2018/12/09,01:20,0.770,1.156,0.814,1.465,1.049,0.448,0.796,0.753,�k�k��,9.4,��
2018/12/09,01:30,0.770,1.156,0.815,1.468,1.051,0.449,0.796,0.754,�k�k��,9.7,�L
2018/12/09,01:40,0.771,1.155,0.815,1.468,1.051,0.449,0.796,0.752,�k�k��,9.8,��
2018/12/09,01:50,0.771,1.156,0.815,1.466,1.051,0.448,0.796,0.756,�k�k��,10.2,��
2018/12/09,02:00,0.768,1.154,0.813,1.465,1.049,0.447,0.795,0.752,�k�k��,9.3,��
2018/12/09,02:10,0.770,1.155,0.815,1.465,1.052,0.448,0.795,0.752,�k�k��,9.0,��
2018/12/09,02:20,0.769,1.155,0.816,1.466,1.049,0.448,0.795,0.753,�k�k��,8.6,��
2018/12/09,02:30,0.770,1.156,0.813,1.464,1.051,0.448,0.795,0.753,�k�k��,8.8,��
2018/12/09,02:40,0.768,1.154,0.815,1.464,1.049,0.448,0.795,0.751,�k�k��,6.8,��
2018/12/09,02:50,0.769,1.155,0.815,1.466,1.048,0.447,0.796,0.751,�k,6.9,��
2018/12/09,03:00,0.767,1.156,0.815,1.466,1.049,0.449,0.796,0.754,�k�k��,6.8,��
2018/12/09,03:10,0.770,1.153,0.815,1.465,1.047,0.446,0.795,0.753,�k,6.5,��
2018/12/09,03:20,0.768,1.154,0.813,1.465,1.048,0.447,0.795,0.753,�k�k��,6.7,��
2018/12/09,03:30,0.767,1.156,0.813,1.466,1.049,0.448,0.795,0.753,�k�k��,7.5,��
2018/12/09,03:40,0.769,1.152,0.815,1.465,1.048,0.448,0.795,0.754,�k�k��,6.3,��
2018/12/09,03:50,0.768,1.155,0.814,1.467,1.048,0.448,0.795,0.752,�k�k��,7.2,��
2018/12/09,04:00,0.767,1.156,0.814,1.465,1.048,0.447,0.795,0.752,�k�k��,7.1,��
2018/12/09,04:10,0.769,1.156,0.814,1.468,1.048,0.446,0.796,0.753,�k�k��,6.3,��
2018/12/09,04:20,0.768,1.154,0.814,1.464,1.048,0.447,0.795,0.754,�k�k��,5.6,��
2018/12/09,04:30,0.769,1.156,0.815,1.467,1.048,0.447,0.795,0.753,�k�k��,6.3,��
2018/12/09,04:40,0.769,1.156,0.814,1.466,1.049,0.448,0.794,0.753,�k�k��,6.6,��
2018/12/09,04:50,0.769,1.158,0.815,1.465,1.049,0.446,0.796,0.753,�k�k��,6.7,��
2018/12/09,05:00,0.766,1.156,0.814,1.465,1.047,0.446,0.794,0.752,�k�k��,6.5,��
2018/12/09,05:10,0.768,1.158,0.814,1.464,1.047,0.446,0.794,0.751,�k�k��,6.4,��
2018/12/09,05:20,0.768,1.156,0.814,1.463,1.049,0.447,0.793,0.753,�k�k��,5.9,��
2018/12/09,05:30,0.769,1.156,0.814,1.464,1.047,0.447,0.795,0.753,�k�k��,7.1,��
2018/12/09,05:40,0.769,1.157,0.813,1.465,1.046,0.447,0.794,0.752,�k�k��,7.5,��
2018/12/09,05:50,0.769,1.155,0.814,1.467,1.048,0.447,0.793,0.752,�k�k��,5.9,��
2018/12/09,06:00,0.766,1.156,0.812,1.466,1.048,0.446,0.794,0.751,�k�k��,5.7,��
2018/12/09,06:10,0.767,1.155,0.813,1.467,1.048,0.447,0.793,0.751,�k��,4.8,��
2018/12/09,06:20,0.768,1.157,0.814,1.466,1.049,0.446,0.794,0.754,�k��,4.5,��
2018/12/09,06:30,0.768,1.159,0.814,1.466,1.047,0.446,0.793,0.752,�k��,4.6,��
2018/12/09,06:40,0.769,1.156,0.814,1.467,1.049,0.446,0.795,0.753,�k��,4.2,��
2018/12/09,06:50,0.768,1.156,0.812,1.465,1.047,0.446,0.794,0.751,�k�k��,4.5,��
2018/12/09,07:00,0.768,1.156,0.812,1.465,1.048,0.446,0.794,0.751,�k�k��,4.4,��
2018/12/09,07:10,0.767,1.156,0.815,1.466,1.046,0.447,0.794,0.752,�k�k��,4.3,��
2018/12/09,07:20,0.770,1.155,0.814,1.464,1.048,0.447,0.793,0.752,�k�k��,4.6,��
2018/12/09,07:30,0.766,1.153,0.814,1.466,1.048,0.446,0.792,0.753,�k�k��,4.2,��
2018/12/09,07:40,0.769,1.155,0.815,1.467,1.049,0.446,0.793,0.753,�k�k��,4.1,��
2018/12/09,07:50,0.768,1.157,0.813,1.464,1.049,0.447,0.794,0.754,�k�k��,4.5,��
2018/12/09,08:00,0.770,1.155,0.815,1.466,1.046,0.446,0.794,0.751,�k�k��,5.0,��
2018/12/09,08:10,0.770,1.156,0.814,1.463,1.049,0.446,0.793,0.751,�k�k��,3.7,��
2018/12/09,08:20,0.768,1.154,0.813,1.465,1.048,0.446,0.794,0.753,�k�k��,4.0,��
2018/12/09,08:30,0.770,1.153,0.813,1.467,1.046,0.446,0.794,0.753,�k�k��,3.0,��
2018/12/09,08:40,0.769,1.157,0.815,1.465,1.046,0.447,0.794,0.754,�k,3.2,��
2018/12/09,08:50,0.767,1.156,0.815,1.464,1.048,0.446,0.793,0.754,�k�k��,3.4,��
2018/12/09,09:00,0.769,1.154,0.816,1.465,1.050,0.446,0.793,0.752,�k�k��,3.6,��
2018/12/09,09:10,0.769,1.156,0.815,1.466,1.052,0.446,0.793,0.752,�k�k��,3.8,��
2018/12/09,09:20,0.769,1.155,0.814,1.463,1.049,0.447,0.795,0.752,�k�k��,3.8,��
2018/12/09,09:30,0.769,1.157,0.814,1.467,1.049,0.447,0.796,0.753,�k��,4.2,��
2018/12/09,09:40,0.771,1.158,0.815,1.466,1.047,0.446,0.794,0.752,�k��,5.0,��
2018/12/09,09:50,0.770,1.157,0.813,1.464,1.049,0.445,0.795,0.753,�k��,6.1,��
2018/12/09,10:00,0.771,1.157,0.814,1.465,1.048,0.449,0.794,0.753,���k��,4.4,��
2018/12/09,10:10,0.769,1.157,0.815,1.467,1.048,0.447,0.793,0.754,�k��,5.8,��
2018/12/09,10:20,0.771,1.157,0.816,1.467,1.050,0.447,0.793,0.754,�k��,4.9,��
2018/12/09,10:30,0.769,1.157,0.815,1.467,1.050,0.447,0.793,0.752,�k��,5.2,��
2018/12/09,10:40,0.771,1.157,0.817,1.467,1.051,0.448,0.795,0.754,�k��,6.0,��
2018/12/09,10:50,0.771,1.157,0.818,1.467,1.053,0.447,0.794,0.754,�k��,5.7,�L
2018/12/09,11:00,0.771,1.160,0.816,1.467,1.052,0.448,0.795,0.753,�k��,6.0,��
2018/12/09,11:10,0.770,1.157,0.819,1.467,1.053,0.448,0.792,0.754,�k��,4.0,��
2018/12/09,11:20,0.771,1.159,0.817,1.470,1.052,0.448,0.794,0.753,�k��,3.5,��
2018/12/09,11:30,0.772,1.158,0.817,1.468,1.052,0.448,0.794,0.754,�k��,4.3,�L
2018/12/09,11:40,0.772,1.159,0.817,1.469,1.054,0.448,0.793,0.755,�k��,5.3,��
2018/12/09,11:50,0.772,1.160,0.818,1.469,1.052,0.448,0.794,0.754,�k��,5.8,�L
2018/12/09,12:00,0.770,1.159,0.814,1.468,1.052,0.449,0.793,0.754,�k��,4.7,�L
2018/12/09,12:10,0.771,1.163,0.815,1.467,1.050,0.447,0.794,0.755,�k��,4.1,��
2018/12/09,12:20,0.771,1.161,0.816,1.468,1.052,0.450,0.796,0.753,�k��,4.1,��
2018/12/09,12:30,0.769,1.162,0.817,1.470,1.053,0.449,0.794,0.754,�k��,4.7,��
2018/12/09,12:40,0.772,1.161,0.817,1.469,1.051,0.447,0.793,0.754,�k��,4.1,��
2018/12/09,12:50,0.769,1.157,0.815,1.470,1.054,0.448,0.792,0.752,���k��,3.7,�L
2018/12/09,13:00,0.768,1.161,0.816,1.471,1.051,0.448,0.793,0.752,���k��,3.1,��
2018/12/09,13:10,0.770,1.160,0.817,1.469,1.052,0.448,0.796,0.755,���k��,4.4,��
2018/12/09,13:20,0.771,1.162,0.817,1.470,1.053,0.448,0.793,0.753,�k��,4.2,��
2018/12/09,13:30,0.771,1.159,0.817,1.469,1.052,0.447,0.795,0.754,���k��,3.7,��
2018/12/09,13:40,0.772,1.161,0.817,1.470,1.053,0.448,0.791,0.754,���k��,3.6,��
2018/12/09,13:50,0.770,1.159,0.814,1.469,1.051,0.448,0.795,0.753,���k��,2.6,��
2018/12/09,14:00,0.772,1.159,0.818,1.471,1.051,0.446,0.794,0.755,�k�k��,5.0,��
2018/12/09,14:10,0.772,1.158,0.818,1.469,1.051,0.446,0.796,0.753,�k��,4.3,��
2018/12/09,14:20,0.772,1.164,0.817,1.468,1.052,0.448,0.794,0.753,�k��,3.8,��
2018/12/09,14:30,0.772,1.159,0.817,1.470,1.054,0.448,0.795,0.755,�k��,4.4,��
2018/12/09,14:40,0.772,1.161,0.817,1.470,1.051,0.448,0.795,0.752,�k��,4.7,��
2018/12/09,14:50,0.773,1.160,0.815,1.471,1.053,0.448,0.797,0.754,�k��,5.3,��
2018/12/09,15:00,0.771,1.160,0.815,1.467,1.052,0.448,0.796,0.753,�k��,5.4,��
2018/12/09,15:10,0.770,1.161,0.819,1.467,1.053,0.448,0.794,0.755,�k��,5.2,��
2018/12/09,15:20,0.773,1.158,0.816,1.470,1.054,0.448,0.796,0.755,�k��,4.6,��
2018/12/09,15:30,0.770,1.158,0.817,1.470,1.052,0.448,0.794,0.751,�k��,5.0,��
2018/12/09,15:40,0.770,1.160,0.815,1.467,1.052,0.448,0.795,0.753,�k��,5.4,��
2018/12/09,15:50,0.768,1.160,0.816,1.466,1.051,0.448,0.795,0.754,�k�k��,6.1,��
2018/12/09,16:00,0.771,1.161,0.817,1.471,1.053,0.447,0.796,0.753,�k��,6.0,��
2018/12/09,16:10,0.771,1.160,0.817,1.470,1.053,0.447,0.795,0.753,�k�k��,6.6,��
2018/12/09,16:20,0.771,1.159,0.816,1.468,1.052,0.449,0.794,0.752,�k�k��,5.1,��
2018/12/09,16:30,0.769,1.162,0.817,1.468,1.054,0.448,0.795,0.752,�k�k��,4.4,��
2018/12/09,16:40,0.770,1.160,0.815,1.468,1.051,0.448,0.796,0.753,�k��,3.8,��
2018/12/09,16:50,0.771,1.160,0.815,1.469,1.051,0.447,0.794,0.753,�k�k��,3.8,��
2018/12/09,17:00,0.771,1.160,0.815,1.467,1.052,0.446,0.795,0.753,�k�k��,4.9,��
2018/12/09,17:10,0.769,1.158,0.816,1.470,1.052,0.447,0.794,0.753,�k��,4.2,��
2018/12/09,17:20,0.768,1.161,0.817,1.469,1.051,0.447,0.795,0.752,�k�k��,4.4,��
2018/12/09,17:30,0.773,1.161,0.814,1.470,1.050,0.448,0.794,0.753,�k�k��,3.4,��
2018/12/09,17:40,0.769,1.161,0.814,1.470,1.051,0.447,0.794,0.752,�k�k��,4.4,��
2018/12/09,17:50,0.768,1.161,0.813,1.470,1.052,0.445,0.793,0.750,�k�k��,4.4,��
2018/12/09,18:00,0.770,1.158,0.814,1.469,1.051,0.447,0.795,0.754,�k�k��,3.9,��
2018/12/09,18:10,0.767,1.159,0.814,1.470,1.052,0.447,0.792,0.753,�k�k��,4.3,��
2018/12/09,18:20,0.769,1.160,0.817,1.467,1.051,0.446,0.793,0.752,�k�k��,3.7,��
2018/12/09,18:30,0.770,1.158,0.815,1.469,1.052,0.447,0.792,0.751,�k�k��,3.1,��
2018/12/09,18:40,0.769,1.158,0.814,1.469,1.049,0.447,0.792,0.754,�k�k��,2.3,��
2018/12/09,18:50,0.768,1.158,0.815,1.467,1.051,0.446,0.794,0.751,�k��,1.7,��
2018/12/09,19:00,0.769,1.161,0.816,1.468,1.050,0.445,0.793,0.753,�k��,2.2,��
2018/12/09,19:10,0.769,1.159,0.815,1.467,1.051,0.446,0.794,0.751,�k��,2.3,��
2018/12/09,19:20,0.768,1.159,0.815,1.465,1.049,0.446,0.791,0.752,���k��,4.2,��
2018/12/09,19:30,0.768,1.158,0.814,1.468,1.052,0.447,0.791,0.751,�k��,4.7,��
2018/12/09,19:40,0.768,1.159,0.814,1.466,1.053,0.447,0.791,0.752,�k��,3.5,��
2018/12/09,19:50,0.771,1.157,0.814,1.466,1.052,0.446,0.793,0.750,���k��,2.0,��
2018/12/09,20:00,0.769,1.159,0.815,1.470,1.052,0.446,0.792,0.753,�쐼,0.9,��
2018/12/09,20:10,0.769,1.159,0.813,1.469,1.051,0.446,0.793,0.751,�쐼,0.9,��
2018/12/09,20:20,0.769,1.158,0.815,1.466,1.049,0.446,0.791,0.753,��쓌,1.5,��
2018/12/09,20:30,0.769,1.160,0.815,1.469,1.051,0.446,0.793,0.753,��쐼,2.6,��
2018/12/09,20:40,0.769,1.159,0.815,1.468,1.052,0.446,0.792,0.753,��쐼,2.9,��
2018/12/09,20:50,0.769,1.157,0.815,1.468,1.049,0.446,0.792,0.752,��쐼,2.6,��
2018/12/09,21:00,0.769,1.158,0.814,1.466,1.051,0.447,0.794,0.752,��쐼,2.6,��
2018/12/09,21:10,0.768,1.159,0.815,1.468,1.050,0.446,0.792,0.752,��쐼,3.4,��
2018/12/09,21:20,0.768,1.159,0.814,1.468,1.049,0.447,0.792,0.751,��쐼,3.4,��
2018/12/09,21:30,0.769,1.158,0.813,1.468,1.049,0.446,0.792,0.752,�쐼,4.5,��
2018/12/09,21:40,0.769,1.156,0.813,1.467,1.051,0.448,0.791,0.751,��쐼,3.7,��
2018/12/09,21:50,0.769,1.157,0.814,1.468,1.049,0.447,0.791,0.750,��쐼,4.0,��
2018/12/09,22:00,0.767,1.157,0.815,1.465,1.049,0.445,0.792,0.754,��쐼,4.8,��
2018/12/09,22:10,0.767,1.158,0.817,1.467,1.049,0.446,0.792,0.752,��쐼,4.7,��
2018/12/09,22:20,0.769,1.156,0.813,1.466,1.050,0.446,0.791,0.751,�쐼,3.5,��
2018/12/09,22:30,0.767,1.156,0.815,1.467,1.050,0.446,0.792,0.752,��쐼,3.1,��
2018/12/09,22:40,0.770,1.157,0.812,1.468,1.050,0.446,0.793,0.752,�쐼,2.6,��
2018/12/09,22:50,0.769,1.159,0.814,1.466,1.046,0.446,0.792,0.752,�쐼,3.4,��
2018/12/09,23:00,0.768,1.161,0.814,1.468,1.048,0.446,0.792,0.752,�쐼,4.1,��
2018/12/09,23:10,0.767,1.156,0.814,1.466,1.050,0.444,0.794,0.752,�쐼,5.3,��
2018/12/09,23:20,0.768,1.155,0.814,1.464,1.046,0.446,0.794,0.752,�쐼,5.0,��
2018/12/09,23:30,0.768,1.156,0.814,1.464,1.050,0.445,0.792,0.752,�쐼,5.0,��
2018/12/09,23:40,0.768,1.158,0.813,1.467,1.049,0.445,0.793,0.751,�쐼,3.3,��
2018/12/09,23:50,0.766,1.155,0.814,1.465,1.048,0.445,0.793,0.752,���k��,2.2,��
